Weather reports worldwide

Advertisment
Redesdale Camp, United Kingdom (3230): temperature & dewpoint: 15.02.2020 01:00:00 - 21.02.2020 01:00:00 (GMT)Redesdale Camp, United Kingdom (3230): temperature -20cm & temperature -100cm: 15.02.2020 01:00:00 - 21.02.2020 01:00:00 (GMT)Redesdale Camp, United Kingdom (3230): wind speed & gusts: 15.02.2020 01:00:00 - 21.02.2020 01:00:00 (GMT)Redesdale Camp, United Kingdom (3230): wind direction: 15.02.2020 01:00:00 - 21.02.2020 01:00:00 (GMT)Redesdale Camp, United Kingdom (3230): reduced air pressure: 15.02.2020 01:00:00 - 21.02.2020 01:00:00 (GMT)Redesdale Camp, United Kingdom (3230): visibility: 15.02.2020 01:00:00 - 21.02.2020 01:00:00 (GMT)Redesdale Camp, United Kingdom (3230): precipitation: 15.02.2020 01:00:00 - 21.02.2020 01:00:00 (GMT)
Date & Time tt [°C] td [°C] tt -20cm [°C] tt -100cm [°C] ff [km/h] ff [kn] fx [km/h] fx [kn] dd ppp [hPa] vv [km] rr [mm]
21.02.2020 01:00:00 3,3 1,5 - - 24 13 46 25 SW 1010,0 30 0,0
21.02.2020 00:00:00 3,1 1,6 - - 24 13 50 27 SW 1009,5 26 0,0
20.02.2020 23:00:00 2,9 1,3 - - 22 12 46 25 WSW 1008,9 23 0,2
20.02.2020 22:00:00 2,2 0,9 - - 24 13 - - WSW 1007,8 40 0,0
20.02.2020 21:00:00 2,1 0,7 - - 24 13 50 27 WSW 1007,0 8 0,0
20.02.2020 20:00:00 1,9 0,1 - - 22 12 - - WSW 1006,4 60 0,0
20.02.2020 19:00:00 2,0 0,2 - - 22 12 - - WSW 1005,3 35 0,0
20.02.2020 18:00:00 2,2 -0,2 - - 21 11 - - SW 1004,2 50 0,0
20.02.2020 17:00:00 2,6 -1,1 - - 18 10 - - WSW 1002,6 60 0,0
20.02.2020 16:00:00 3,8 -0,1 - - 16 9 - - WSW 1001,7 75 0,0
20.02.2020 15:00:00 3,5 -0,2 - - 13 7 - - WSW 1000,7 75 0,2
20.02.2020 14:00:00 4,6 1,6 - - 11 6 - - W 999,2 75 0,0
20.02.2020 13:00:00 3,9 2,5 - - 15 8 - - WSW 998,5 75 0,2
20.02.2020 12:00:00 3,1 2,4 - - 8 4 - - WSW 998,3 65 0,2
20.02.2020 11:00:00 2,5 2,0 - - 8 4 - - WSW 997,7 13 1,8
20.02.2020 10:00:00 3,0 2,4 - - 11 6 - - WNW 996,1 8 1,8
20.02.2020 09:00:00 4,7 3,5 4,0 4,9 11 6 - - WNW 994,7 6 2,4
20.02.2020 08:00:00 7,0 5,9 - - 34 18 54 29 SW 993,3 3,2 2,4
20.02.2020 07:00:00 7,5 6,9 - - 31 17 55 30 SW 993,0 4,1 0,4
20.02.2020 06:00:00 7,4 6,8 - - 26 14 - - SW 994,1 5 0,4
20.02.2020 05:00:00 7,6 6,9 - - 22 12 46 25 SSW 995,6 11 0,2
20.02.2020 04:00:00 8,1 7,1 - - 24 13 55 30 SW 996,7 75 0,0
20.02.2020 03:00:00 8,0 7,4 - - 34 18 57 31 SSW 997,3 15 0,0
20.02.2020 02:00:00 8,0 7,3 - - 26 14 - - SW 998,4 15 0,2
20.02.2020 01:00:00 7,8 7,2 - - 24 13 - - SW 999,4 10 0,2
20.02.2020 00:00:00 7,9 7,2 - - 24 13 48 26 SW 1000,1 13 0,4
19.02.2020 23:00:00 7,9 7,3 - - 22 12 48 26 SW 1000,5 3,7 0,2
19.02.2020 22:00:00 8,0 7,3 - - 24 13 48 26 SW 1000,5 7 0,2
19.02.2020 21:00:00 7,8 7,2 - - 24 13 55 30 SW 1001,0 6 0,2
19.02.2020 20:00:00 7,6 7,0 - - 28 15 50 27 SW 1001,6 4,3 0,2
19.02.2020 19:00:00 6,7 6,4 - - 18 10 - - SSW 1002,7 11 0,4
19.02.2020 18:00:00 5,2 5,0 - - 15 8 - - SSW 1003,8 3,1 0,4
19.02.2020 17:00:00 4,8 4,4 - - 13 7 - - S 1004,9 9 0,2
19.02.2020 16:00:00 4,3 3,7 - - 15 8 - - S 1006,1 19 0,4
19.02.2020 15:00:00 4,2 3,3 - - 21 11 - - SSW 1007,5 16 0,2
19.02.2020 14:00:00 4,2 3,1 - - 24 13 46 25 SW 1009,0 22 0,0
19.02.2020 13:00:00 4,5 2,7 - - 22 12 46 25 SW 1009,9 29 0,0
19.02.2020 12:00:00 4,1 2,3 - - 26 14 46 25 SW 1011,2 40 0,0
19.02.2020 11:00:00 3,6 1,6 - - 18 10 - - WSW 1012,1 30 0,0
19.02.2020 10:00:00 2,4 0,8 - - 18 10 - - WSW 1012,6 30 0,0
19.02.2020 09:00:00 1,8 0,4 3,9 4,9 13 7 - - SW 1012,9 30 0,0
19.02.2020 08:00:00 1,5 0,3 - - 15 8 - - WSW 1012,5 30 0,0
19.02.2020 07:00:00 1,4 0,2 - - 15 8 - - WSW 1011,7 30 0,0
19.02.2020 06:00:00 1,1 0,1 - - 11 6 - - WSW 1011,7 30 -
19.02.2020 05:00:00 1,4 0,1 - - 15 8 - - WSW 1011,3 35 -
19.02.2020 04:00:00 1,5 0,4 - - 15 8 - - WSW 1010,4 25 0,2
19.02.2020 03:00:00 1,5 0,2 - - 15 8 - - WSW 1010,4 45 0,0
19.02.2020 02:00:00 1,2 0,1 - - 15 8 - - WSW 1009,9 50 0,0
19.02.2020 01:00:00 1,3 0,2 - - 21 11 - - WSW 1008,9 50 0,0
19.02.2020 00:00:00 1,2 0,3 - - 15 8 48 26 WSW 1008,6 40 0,0
18.02.2020 23:00:00 1,1 -0,1 - - 11 6 - - WSW 1007,9 40 0,0
18.02.2020 22:00:00 1,2 -0,1 - - 13 7 - - WSW 1006,8 75 0,0
18.02.2020 21:00:00 1,7 0,6 - - 15 8 - - WSW 1006,6 14 0,0
18.02.2020 20:00:00 1,6 0,3 - - 16 9 - - WSW 1005,7 27 0,0
18.02.2020 19:00:00 1,8 0,0 - - 13 7 - - WSW 1005,5 13 0,0
18.02.2020 18:00:00 1,7 0,0 - - 11 6 - - WSW 1005,0 75 0,0
18.02.2020 17:00:00 2,9 0,9 - - 15 8 - - WSW 1004,1 75 0,2
18.02.2020 16:00:00 4,5 1,8 - - 26 14 52 28 SW 1003,7 50 0,2
18.02.2020 15:00:00 4,6 2,9 - - 28 15 48 26 SW 1003,9 55 0,0
18.02.2020 14:00:00 4,5 2,3 - - 28 15 55 30 SW 1004,5 75 0,2
18.02.2020 13:00:00 4,1 2,9 - - 28 15 59 32 SW 1005,0 45 0,8
18.02.2020 12:00:00 4,4 2,9 - - 28 15 55 30 SW 1005,7 16 0,2
18.02.2020 11:00:00 4,1 2,6 - - 28 15 59 32 SW 1005,9 22 0,6
18.02.2020 10:00:00 3,9 2,8 - - 31 17 52 28 SW 1005,7 8 -
18.02.2020 09:00:00 4,1 1,1 4,0 4,9 22 12 48 26 SW 1006,5 45 0,0
18.02.2020 08:00:00 3,5 1,1 - - 26 14 55 30 SW 1006,5 35 0,0
18.02.2020 07:00:00 3,4 1,0 - - 29 16 59 32 SW 1006,3 40 0,0
18.02.2020 06:00:00 3,2 0,8 - - 26 14 57 31 WSW 1006,6 35 -
18.02.2020 05:00:00 3,0 0,6 - - 28 15 52 28 SW 1006,5 45 0,0
18.02.2020 04:00:00 3,0 0,7 - - 34 18 55 30 SW 1006,2 35 0,0
18.02.2020 03:00:00 3,0 0,7 - - 28 15 57 31 SW 1006,4 40 0,2
18.02.2020 02:00:00 2,5 0,6 - - 29 16 54 29 WSW 1006,3 35 0,0
18.02.2020 01:00:00 2,3 1,0 - - 26 14 - - SW 1006,4 30 0,0
18.02.2020 00:00:00 2,5 1,4 - - 21 11 - - WSW 1005,6 35 -
17.02.2020 23:00:00 2,2 1,1 - - 22 12 48 26 WSW 1004,8 24 0,2
17.02.2020 22:00:00 2,1 0,9 - - 24 13 55 30 WSW 1003,4 6 0,2
17.02.2020 21:00:00 3,0 0,1 - - 26 14 52 28 SW 1002,3 35 0,0
17.02.2020 20:00:00 3,0 -0,1 - - 28 15 54 29 WSW 1002,1 40 0,0
17.02.2020 19:00:00 3,1 0,4 - - 26 14 57 31 SW 1001,4 40 0,0
17.02.2020 18:00:00 3,4 1,0 - - 26 14 50 27 WSW 1000,0 60 0,0
17.02.2020 17:00:00 3,4 1,8 - - 21 11 54 29 WSW 999,4 75 0,4
17.02.2020 16:00:00 5,9 2,5 - - 29 16 59 32 SW 998,0 35 0,0
17.02.2020 15:00:00 6,6 3,2 - - 34 18 54 29 SW 997,2 23 0,0
17.02.2020 14:00:00 6,5 3,4 - - 31 17 57 31 SW 996,7 30 0,2
17.02.2020 13:00:00 7,1 3,5 - - 28 15 63 34 SW 996,1 26 0,0
17.02.2020 12:00:00 7,4 3,5 - - 26 14 63 34 WSW 994,5 35 0,0
17.02.2020 11:00:00 6,9 3,7 - - 22 12 59 32 WSW 993,6 35 0,0
17.02.2020 10:00:00 6,2 2,9 - - 28 15 70 38 WSW 991,8 30 0,0
17.02.2020 09:00:00 5,5 2,9 4,0 4,9 28 15 67 36 WSW 990,8 26 0,0
17.02.2020 08:00:00 5,1 2,9 - - 39 21 78 42 SW 989,9 24 0,0
17.02.2020 07:00:00 4,9 2,6 - - 44 24 80 43 SW 987,9 23 0,0
17.02.2020 06:00:00 5,0 2,2 - - 50 27 83 45 SW 987,3 19 0,0
17.02.2020 05:00:00 4,7 1,9 - - 50 27 91 49 SW 986,5 17 0,0
17.02.2020 04:00:00 4,5 2,0 - - 54 29 102 55 SW 985,3 11 0,0
17.02.2020 03:00:00 3,9 1,9 - - 52 28 91 49 SW 984,3 3,8 0,2
17.02.2020 02:00:00 4,3 1,0 - - 50 27 83 45 SW 983,7 16 0,0
17.02.2020 01:00:00 3,4 1,5 - - 48 26 87 47 SW 984,1 5 0,8
17.02.2020 00:00:00 4,4 0,2 - - 50 27 85 46 SW 983,5 16 0,0
16.02.2020 23:00:00 4,5 0,4 - - 48 26 81 44 SW 983,5 24 0,0
16.02.2020 22:00:00 4,4 0,4 - - 44 24 85 46 SW 982,2 27 0,0
16.02.2020 21:00:00 4,4 0,7 - - 39 21 70 38 SW 982,3 30 0,0
16.02.2020 20:00:00 4,4 1,1 - - 37 20 70 38 SW 981,6 30 0,0
16.02.2020 19:00:00 4,2 1,7 - - 41 22 67 36 SW 980,9 5 0,0
16.02.2020 18:00:00 4,2 1,5 - - 41 22 80 43 SW 979,9 8 0,2
16.02.2020 17:00:00 4,4 1,4 - - 42 23 83 45 SW 979,3 30 0,2
16.02.2020 16:00:00 5,6 0,9 - - 37 20 72 39 SW 978,7 16 0,0
16.02.2020 15:00:00 5,9 0,5 - - 37 20 72 39 SW 978,7 29 0,0
16.02.2020 14:00:00 5,4 1,0 - - 31 17 59 32 SW 978,6 17 0,0
16.02.2020 13:00:00 5,8 0,0 - - 34 18 61 33 SW 978,9 26 0,0
16.02.2020 12:00:00 5,1 0,7 - - 31 17 55 30 SSW 979,7 21 0,0
16.02.2020 11:00:00 4,7 1,0 - - 31 17 55 30 SW 980,2 24 0,0
16.02.2020 10:00:00 4,1 1,5 - - 26 14 55 30 SW 979,4 22 0,0
16.02.2020 09:00:00 3,6 1,7 4,0 4,9 28 15 59 32 SW 978,7 10 0,6
16.02.2020 08:00:00 4,0 1,7 - - 31 17 57 31 SW 977,6 30 0,0
16.02.2020 07:00:00 3,5 2,0 - - 24 13 48 26 SW 976,4 23 0,4
16.02.2020 06:00:00 3,7 2,7 - - 28 15 52 28 WSW 975,8 2,2 2,2
16.02.2020 05:00:00 5,1 3,6 - - 22 12 48 26 SW 974,9 45 0,2
16.02.2020 04:00:00 4,3 3,1 - - 24 13 83 45 SW 975,5 65 2,0
16.02.2020 03:00:00 7,5 5,2 - - 34 18 57 31 SW 974,8 10 0,0
16.02.2020 02:00:00 5,2 5,0 - - 11 6 - - S 976,4 7 4,4
16.02.2020 01:00:00 5,5 4,4 - - 26 14 48 26 S 977,9 8 0,4
16.02.2020 00:00:00 5,8 4,3 - - 11 6 85 46 S 979,2 30 0,0
15.02.2020 23:00:00 6,2 4,2 - - 28 15 81 44 SW 981,1 35 0,6
15.02.2020 22:00:00 7,0 4,2 - - 34 18 55 30 SW 980,3 50 0,0
15.02.2020 21:00:00 7,0 5,0 - - 35 19 61 33 SW 980,0 50 0,0
15.02.2020 20:00:00 7,2 6,0 - - 34 18 59 32 SW 978,6 75 1,8
15.02.2020 19:00:00 7,0 6,2 - - 28 15 57 31 SW 978,3 5 2,4
15.02.2020 18:00:00 7,8 6,9 - - 29 16 68 37 SW 978,3 2,1 7,8
15.02.2020 17:00:00 9,0 8,4 - - 35 19 61 33 S 976,6 4,8 3,0
15.02.2020 16:00:00 8,9 8,2 - - 35 19 63 34 S 979,4 3,0 1,8
15.02.2020 15:00:00 8,3 7,3 - - 31 17 65 35 S 982,3 7 0,8
15.02.2020 14:00:00 8,2 7,3 - - 37 20 74 40 SSW 984,6 8 1,0
15.02.2020 13:00:00 8,7 7,7 - - 34 18 54 29 SSW 986,5 7 1,8
15.02.2020 12:00:00 7,4 7,1 - - 21 11 - - S 989,1 6 1,4
15.02.2020 11:00:00 7,7 6,6 - - 24 13 - - S 991,3 40 0,2
15.02.2020 10:00:00 6,9 5,4 - - 22 12 - - S 993,5 30 0,0
15.02.2020 09:00:00 4,6 3,9 3,5 5,0 16 9 - - SSE 996,8 11 0,0
15.02.2020 08:00:00 4,4 3,4 - - 9 5 - - SE 998,6 13 0,0
15.02.2020 07:00:00 4,1 3,3 - - 16 9 - - S 1001,0 16 0,0
15.02.2020 06:00:00 2,3 2,1 - - 11 6 - - SE 1002,8 14 0,0
15.02.2020 05:00:00 1,3 1,3 - - 5 3 - - SE 1004,1 11 0,0
15.02.2020 04:00:00 1,0 0,9 - - 8 4 - - SE 1005,1 15 0,0
15.02.2020 03:00:00 1,2 1,1 - - 5 3 - - NE 1006,6 21 0,0
15.02.2020 02:00:00 1,3 1,1 - - 5 3 - - SSW 1007,7 7 0,0
15.02.2020 01:00:00 2,3 2,0 - - 9 5 - - ESE 1008,2 15 0,0

tt = temperature
td = dewpoint
tt -20cm = temperature -20cm
tt -100cm = temperature -100cm
ff = wind speed
fx = gusts
dd = wind direction
ppp = reduced air pressure
vv = visibility
rr = precipitation

Next stations